Stations météo

réclame
Mon MeteoGroup
Jaen, Espagne (8417): Température de l'air & dewpoint: 17.04.2018 03:00:00 - 23.04.2018 03:00:00 (CEST)Jaen, Espagne (8417): Vitesse du vent: 17.04.2018 03:00:00 - 23.04.2018 03:00:00 (CEST)Jaen, Espagne (8417): Direction du vent: 17.04.2018 03:00:00 - 23.04.2018 03:00:00 (CEST)Jaen, Espagne (8417): reduced air pressure: 17.04.2018 03:00:00 - 23.04.2018 03:00:00 (CEST)Jaen, Espagne (8417): visibility: 17.04.2018 03:00:00 - 23.04.2018 03:00:00 (CEST)Jaen, Espagne (8417): Quantités de précipitations: 17.04.2018 03:00:00 - 23.04.2018 03:00:00 (CEST)
Date & Time tt [°C] td [°C] ff [km/h] ff [knt] dd ppp [hPa] vv [km] rr [mm]
23.04.2018 03:00:00 18,6 11,4 11 6 NW 1015,8 20 0,0
23.04.2018 02:00:00 19,0 9,2 16 9 S 1015,5 18 -
23.04.2018 01:00:00 19,0 10,5 16 9 S 1014,9 20 0,0
23.04.2018 00:00:00 18,9 11,7 16 9 WSW 1014,9 12 0,4
22.04.2018 23:00:00 21,5 10,6 15 8 W 1013,4 20 -
22.04.2018 22:00:00 21,4 8,0 11 6 SSE 1011,3 20 0,0
22.04.2018 21:00:00 21,7 11,4 8 4 WSW 1010,3 20 0,0
22.04.2018 20:00:00 24,8 10,6 9 5 W 1009,3 20 -
22.04.2018 19:00:00 25,5 10,1 15 8 NW 1009,2 20 0,0
22.04.2018 18:00:00 25,8 9,6 15 8 NW 1009,0 20 0,0
22.04.2018 17:00:00 25,8 9,6 9 5 NW 1008,9 20 -
22.04.2018 16:00:00 25,2 9,9 9 5 NNW 1009,6 20 0,0
22.04.2018 15:00:00 23,7 10,0 9 5 NW 1010,1 20 0,0
22.04.2018 14:00:00 23,2 9,9 8 4 N 1010,6 20 -
22.04.2018 13:00:00 21,5 9,1 5 3 N 1011,5 20 0,0
22.04.2018 12:00:00 21,2 8,5 9 5 NW 1011,7 19 0,0
22.04.2018 11:00:00 20,1 6,1 8 4 ESE 1011,8 20 -
22.04.2018 10:00:00 19,2 6,0 15 8 SSE 1011,8 20 0,0
22.04.2018 09:00:00 18,4 5,2 15 8 SE 1011,6 20 0,0
22.04.2018 08:00:00 18,2 4,7 16 9 SE 1011,6 20 -
22.04.2018 07:00:00 18,0 4,9 21 11 SSE 1011,4 20 0,0
22.04.2018 06:00:00 17,8 5,0 18 10 SE 1012,0 20 0,0
22.04.2018 05:00:00 17,7 5,3 18 10 SE 1012,8 20 -
22.04.2018 04:00:00 18,2 5,4 22 12 SE 1013,2 20 0,0
22.04.2018 03:00:00 17,6 5,8 24 13 SE 1014,4 20 0,0
22.04.2018 02:00:00 18,9 6,0 37 20 SE 1014,4 20 -
22.04.2018 01:00:00 18,7 6,5 18 10 SE 1014,5 20 0,0
22.04.2018 00:00:00 19,0 7,1 11 6 SE 1013,9 20 0,0
21.04.2018 23:00:00 20,1 6,8 31 17 SE 1013,0 20 -
21.04.2018 22:00:00 20,1 7,5 26 14 SE 1012,7 20 0,0
21.04.2018 21:00:00 20,8 7,4 22 12 SE 1012,1 20 0,0
21.04.2018 20:00:00 21,3 8,2 11 6 SSE 1011,8 20 -
21.04.2018 19:00:00 22,9 8,9 8 4 SE 1011,4 20 0,0
21.04.2018 18:00:00 24,4 9,9 9 5 W 1011,4 20 0,0
21.04.2018 17:00:00 23,6 9,2 15 8 SE 1011,8 20 -
21.04.2018 16:00:00 23,7 8,5 16 9 ESE 1012,1 20 0,0
21.04.2018 15:00:00 23,2 9,2 18 10 ESE 1012,4 20 0,0
21.04.2018 14:00:00 21,9 9,1 18 10 SE 1012,7 20 -
21.04.2018 13:00:00 20,6 8,9 21 11 ESE 1013,0 20 0,0
21.04.2018 12:00:00 18,8 7,9 26 14 ESE 1013,8 20 0,0
21.04.2018 11:00:00 16,9 7,0 24 13 ESE 1014,1 20 -
21.04.2018 10:00:00 16,1 6,5 22 12 SE 1014,5 20 0,0
21.04.2018 09:00:00 15,7 6,1 22 12 SE 1015,5 20 0,0
21.04.2018 08:00:00 15,2 6,5 9 5 SSE 1015,8 20 -
21.04.2018 07:00:00 15,6 6,0 11 6 SSW 1015,5 20 0,0
21.04.2018 06:00:00 15,7 5,9 26 14 SSE 1013,9 20 0,0
21.04.2018 05:00:00 15,9 6,0 34 18 SSE 1013,5 20 -
21.04.2018 04:00:00 15,9 6,0 29 16 SE 1013,3 20 0,0
21.04.2018 03:00:00 15,8 7,0 18 10 ESE 1015,6 20 0,0
21.04.2018 02:00:00 16,1 7,3 21 11 ESE 1017,6 20 -
21.04.2018 01:00:00 16,8 7,4 22 12 SE 1017,5 20 0,0
21.04.2018 00:00:00 17,5 7,0 28 15 SE 1016,6 20 0,0
20.04.2018 23:00:00 18,0 6,8 15 8 SE 1016,1 20 -
20.04.2018 22:00:00 18,6 7,1 15 8 SE 1015,3 20 0,0
20.04.2018 21:00:00 19,4 6,8 28 15 ESE 1014,3 20 0,0
20.04.2018 20:00:00 20,3 7,0 24 13 SE 1013,6 20 -
20.04.2018 19:00:00 21,2 7,1 24 13 SE 1013,0 20 0,0
20.04.2018 18:00:00 21,9 8,0 21 11 SE 1013,0 20 0,0
20.04.2018 17:00:00 22,1 7,1 21 11 ESE 1012,8 20 -
20.04.2018 16:00:00 21,9 7,3 15 8 ESE 1013,1 20 0,0
20.04.2018 15:00:00 21,7 8,2 18 10 ESE 1013,5 20 0,0
20.04.2018 14:00:00 20,9 7,5 18 10 ESE 1014,0 20 -
20.04.2018 13:00:00 19,5 6,9 24 13 ESE 1014,8 20 0,0
20.04.2018 12:00:00 18,1 7,5 24 13 ESE 1015,4 20 0,0
20.04.2018 11:00:00 16,9 6,7 18 10 ESE 1015,7 20 -
20.04.2018 10:00:00 15,4 6,4 26 14 ESE 1016,0 20 0,0
20.04.2018 09:00:00 14,2 6,3 26 14 ESE 1016,2 19 0,0
20.04.2018 08:00:00 13,3 6,2 21 11 SE 1016,5 20 -
20.04.2018 07:00:00 13,3 6,2 18 10 SE 1016,8 20 0,0
20.04.2018 06:00:00 14,0 6,1 24 13 SE 1016,9 20 0,0
20.04.2018 05:00:00 14,5 6,1 21 11 SE 1017,2 20 -
20.04.2018 04:00:00 14,9 6,2 18 10 SE 1017,3 20 0,0
20.04.2018 03:00:00 15,7 5,6 26 14 SE 1017,5 20 0,0
20.04.2018 02:00:00 16,2 4,9 24 13 ESE 1017,6 20 -
20.04.2018 01:00:00 16,7 5,3 26 14 ESE 1017,8 20 0,0
20.04.2018 00:00:00 17,4 5,3 18 10 SSE 1017,6 20 0,0
19.04.2018 23:00:00 17,9 7,0 18 10 SSE 1017,5 20 -
19.04.2018 22:00:00 19,1 7,5 24 13 ESE 1016,6 20 0,0
19.04.2018 21:00:00 20,5 6,4 28 15 SE 1015,7 20 0,0
19.04.2018 20:00:00 21,8 6,5 21 11 SE 1015,0 20 -
19.04.2018 19:00:00 23,2 6,0 16 9 SE 1014,7 20 0,0
19.04.2018 18:00:00 24,2 5,0 13 7 SE 1014,5 20 0,0
19.04.2018 17:00:00 24,7 5,5 9 5 E 1014,8 20 -
19.04.2018 16:00:00 24,2 7,8 9 5 ESE 1015,7 20 0,0
19.04.2018 15:00:00 23,4 6,2 16 9 ESE 1016,7 20 0,0
19.04.2018 14:00:00 22,6 7,6 9 5 E 1017,5 20 -
19.04.2018 13:00:00 21,7 6,4 15 8 ESE 1018,2 20 0,0
19.04.2018 12:00:00 20,5 6,1 18 10 ESE 1018,9 20 0,0
19.04.2018 11:00:00 18,9 6,4 15 8 ESE 1019,5 20 -
19.04.2018 10:00:00 17,9 5,1 18 10 ESE 1019,6 20 0,0
19.04.2018 09:00:00 16,8 4,1 15 8 SE 1019,9 20 0,0
19.04.2018 08:00:00 16,5 3,2 16 9 SE 1019,9 20 -
19.04.2018 07:00:00 16,6 2,9 22 12 SE 1019,8 20 0,0
19.04.2018 06:00:00 16,8 2,8 18 10 SE 1020,2 20 0,0
19.04.2018 05:00:00 17,1 1,5 21 11 SE 1020,2 20 -
19.04.2018 04:00:00 17,3 1,7 18 10 SE 1020,7 20 0,0
19.04.2018 03:00:00 17,5 1,0 18 10 SE 1021,2 20 0,0
19.04.2018 02:00:00 18,1 1,1 18 10 SE 1021,2 20 -
19.04.2018 01:00:00 18,6 2,4 22 12 SE 1021,0 20 0,0
19.04.2018 00:00:00 18,9 5,7 16 9 SSE 1020,9 20 0,0
18.04.2018 23:00:00 19,8 5,8 13 7 SE 1020,6 20 -
18.04.2018 22:00:00 19,9 5,9 11 6 SSE 1020,0 20 0,0
18.04.2018 21:00:00 20,5 9,7 9 5 SW 1019,1 20 0,0
18.04.2018 20:00:00 24,1 9,3 5 3 WNW 1018,3 20 -
18.04.2018 19:00:00 24,4 6,6 9 5 NNW 1018,5 20 0,0
18.04.2018 18:00:00 25,3 6,9 5 3 NNW 1018,5 20 0,0
18.04.2018 17:00:00 25,3 6,9 9 5 N 1018,7 20 -
18.04.2018 16:00:00 24,6 8,5 5 3 N 1019,4 20 0,0
18.04.2018 15:00:00 23,5 8,7 5 3 NE 1019,9 20 0,0
18.04.2018 14:00:00 22,9 10,7 4 2 NNE 1020,3 20 -
18.04.2018 13:00:00 21,7 9,6 8 4 N 1021,2 20 0,0
18.04.2018 12:00:00 20,4 9,9 5 3 N 1021,9 20 0,0
18.04.2018 11:00:00 18,3 7,7 4 2 N 1022,2 20 -
18.04.2018 10:00:00 16,5 8,9 4 2 NNE 1022,5 20 0,0
18.04.2018 09:00:00 14,6 6,7 5 3 NNW 1022,7 20 0,0
18.04.2018 08:00:00 12,9 6,7 4 2 W 1023,0 20 -
18.04.2018 07:00:00 13,1 6,0 4 2 W 1022,6 20 0,0
18.04.2018 06:00:00 16,0 5,3 4 2 NNE 1021,9 20 0,0
18.04.2018 05:00:00 17,3 5,9 16 9 SSE 1021,6 20 -
18.04.2018 04:00:00 17,0 5,6 16 9 SSE 1021,9 20 0,0
18.04.2018 03:00:00 17,2 4,8 15 8 SE 1022,4 20 0,0
18.04.2018 02:00:00 16,1 5,1 15 8 S 1023,0 20 -
18.04.2018 01:00:00 14,5 5,0 8 4 SW 1023,5 20 0,0
18.04.2018 00:00:00 15,5 4,2 5 3 WSW 1023,0 20 0,0
17.04.2018 23:00:00 15,6 4,0 8 4 WSW 1022,9 20 -
17.04.2018 22:00:00 16,5 4,8 4 2 SSW 1022,4 20 0,0
17.04.2018 21:00:00 18,1 2,8 8 4 SW 1021,6 20 0,0
17.04.2018 20:00:00 21,5 5,0 4 2 W 1020,5 20 -
17.04.2018 19:00:00 21,6 3,3 5 3 N 1020,7 20 0,0
17.04.2018 18:00:00 22,7 4,7 8 4 NNW 1020,4 20 0,0
17.04.2018 17:00:00 22,4 3,0 5 3 N 1020,9 20 -
17.04.2018 16:00:00 21,8 5,6 5 3 N 1021,2 20 0,0
17.04.2018 15:00:00 20,7 7,7 8 4 NE 1021,9 20 0,0
17.04.2018 14:00:00 19,3 8,0 5 3 N 1022,7 20 -
17.04.2018 13:00:00 18,0 9,1 5 3 NE 1023,4 20 0,0
17.04.2018 12:00:00 16,6 8,0 5 3 N 1024,0 20 0,0
17.04.2018 11:00:00 15,8 8,0 8 4 E 1023,9 20 -
17.04.2018 10:00:00 14,4 8,1 5 3 E 1023,8 20 0,0
17.04.2018 09:00:00 13,1 7,7 11 6 SE 1024,0 20 0,0
17.04.2018 08:00:00 10,9 6,8 9 5 SSE 1024,1 20 -
17.04.2018 07:00:00 10,5 6,3 11 6 S 1023,7 20 0,0
17.04.2018 06:00:00 10,0 6,2 11 6 S 1023,8 20 0,0
17.04.2018 05:00:00 9,4 6,3 8 4 S 1024,1 20 -
17.04.2018 04:00:00 9,0 6,3 5 3 SSW 1024,2 20 0,0
17.04.2018 03:00:00 9,5 6,4 8 4 SW 1024,3 20 0,0

tt = Température de l'air
td = dewpoint
ff = Vitesse du vent
dd = Direction du vent
ppp = reduced air pressure
vv = visibility
rr = Quantités de précipitations

stations d'obs. à proximité